Flag for Canada Weather past 2 weeks in Happy Valley-Goose Bay, Newfoundland and Labrador, Canada

Now
59 °F

Fog.


Feels Like: 59 °F
Forecast: 56 / 72 °F
Wind: 2 mph from East

Location: Goose

Current Time: Jul 30, 2015 at 11:13:14 AM

Latest Report: Jul 30, 2015 at 10:00 AM


Visibility: 6 mi

Pressure: 29.88 "Hg

Humidity: 94%

Dew point: 57 °F

Location of Happy Valley-Goose BayLocation

Historic Weather in Happy Valley-Goose Bay — Graph

°F

Happy Valley-Goose Bay temperature yesterday

Maximum temperature yesterday: 73 °F (at 3:00 PM)
Minimum temperature yesterday: 57 °F (at 4:00 AM)
Average temperature yesterday: 65 °F

Past Weeks' High & Low Weather Summary

 TemperatureHumidityPressure
High77 °F (Jul 26, 4:00 PM)100% (Jul 24, 6:00 AM)30.18 "Hg (Jul 24, 6:00 AM)
Low39 °F (Jul 25, 4:48 AM)25% (Jul 26, 7:00 PM)29.52 "Hg (Jul 15, 3:00 PM)
Average57 °F71%29.94 "Hg
* Reported Jul 15 9:00 AM — Jul 30 9:00 AM, Happy Valley-Goose Bay, Weather by CustomWeather, © 2015

Note: Actual official high and low records may vary slightly from our data, if they occured in-between our weather recording intervals... More about our weather records

Advertising

Happy Valley-Goose Bay weather history for previous 24 hours

 ConditionsComfort  
Time TempWeatherWind HumidityBarometerVisibility
9:00 AM
Thu, Jul 30
59 °FFog.6 mph88%29.88 "Hg6 mi
8:00 AM57 °FLow clouds.8 mph94%29.88 "Hg15 mi
7:00 AM57 °FLow clouds.7 mph94%29.88 "Hg15 mi
6:00 AM57 °FLow clouds.8 mph94%29.88 "Hg15 mi
5:00 AM57 °FPassing clouds.5 mph94%29.89 "Hg15 mi
4:00 AM59 °FPassing clouds.6 mph88%29.89 "Hg15 mi
3:00 AM59 °FLow clouds.7 mph94%29.89 "Hg15 mi
2:00 AM61 °FPassing clouds.6 mph88%29.90 "Hg15 mi
1:00 AM61 °FPassing clouds.3 mph88%29.90 "Hg15 mi
12:00 AM61 °FPassing clouds.6 mph88%29.91 "Hg15 mi
11:00 PM
Wed, Jul 29
63 °FPassing clouds.No wind83%29.92 "Hg15 mi
10:00 PM63 °FPassing clouds.6 mph88%29.91 "Hg15 mi
9:00 PM64 °FPassing clouds.13 mph83%29.90 "Hg15 mi
8:00 PM68 °FPassing clouds.7 mph78%29.90 "Hg15 mi
7:00 PM72 °FPassing clouds.13 mph65%29.91 "Hg15 mi
6:00 PM73 °FScattered clouds.10 mph57%29.90 "Hg15 mi
5:00 PM73 °FScattered clouds.7 mph65%29.90 "Hg15 mi
4:00 PM73 °FPartly sunny.6 mph61%29.91 "Hg15 mi
3:00 PM73 °FBroken clouds.7 mph61%29.92 "Hg15 mi
2:00 PM70 °FPartly sunny.7 mph69%29.93 "Hg15 mi
1:00 PM70 °FBroken clouds.7 mph69%29.93 "Hg15 mi
12:00 PM66 °FBroken clouds.8 mph78%29.94 "Hg15 mi
11:00 AM64 °FSprinkles. Broken clouds.6 mph83%29.96 "Hg15 mi
Weather by CustomWeather, © 2015

See weather overviewHow to use our weather pages